Date,TemperatureHighF,TemperatureAvgF,TemperatureLowF,DewpointHighF,DewpointAvgF,DewpointLowF,HumidityHigh,HumidityAvg,HumidityLow,PressureMaxIn,PressureMinIn,WindSpeedMaxMPH,WindSpeedAvgMPH,GustSpeedMaxMPH,PrecipitationSumIn
2013-1-1,48.6,43.1,38.8,43.0,34.9,-99.9,91,75,56,30.16,30.11,3,-10,7,0.00
2013-1-2,50.0,46.6,44.0,45.0,43.3,41.0,93,88,76,30.30,30.09,6,0,12,0.13
2013-1-3,53.4,48.5,44.4,45.0,41.8,39.0,85,78,69,30.50,30.30,16,3,18,0.00
2013-1-4,52.5,45.0,39.7,45.0,39.2,36.0,88,80,68,30.48,30.30,2,0,5,0.00
2013-1-5,49.8,44.4,41.3,43.0,38.9,35.0,89,81,73,30.29,30.09,2,0,4,0.00
2013-1-6,57.1,49.8,44.7,45.0,39.0,32.0,90,68,41,30.20,30.09,10,2,17,0.00
2013-1-7,57.5,49.2,42.2,46.0,38.8,32.0,91,69,42,30.24,30.06,14,3,18,0.00
2013-1-8,51.3,45.9,42.6,38.0,33.1,30.0,69,61,53,30.29,30.22,16,4,23,0.00
2013-1-17,45.5,39.4,34.6,40.6,36.3,32.3,94,89,83,29.38,29.32,5,1,9,0.87
2013-1-18,36.7,34.9,33.2,35.1,32.8,30.7,94,92,87,29.60,29.32,2,0,13,0.28
2013-1-19,50.7,39.7,33.2,49.0,36.5,30.0,95,89,73,29.69,29.61,3,0,12,0.11
2013-1-20,58.0,54.5,51.7,52.2,50.4,49.4,92,86,77,29.61,29.47,9,3,20,0.35
2013-1-21,51.5,46.9,43.3,48.9,44.7,40.7,95,92,83,29.57,29.35,6,1,17,0.77
2013-1-22,49.3,43.6,39.1,44.5,41.0,37.3,96,91,68,29.82,29.57,6,1,20,0.12
2013-1-23,49.7,41.1,36.5,43.1,38.4,34.1,96,90,76,29.84,29.63,7,2,15,1.07
2013-1-24,46.0,42.6,39.0,42.7,40.4,37.7,96,92,87,29.61,29.38,5,0,10,0.48
2013-1-25,47.1,43.1,39.8,39.3,36.2,30.5,93,77,63,29.59,29.41,15,7,30,0.01
2013-1-26,45.5,40.1,35.2,33.6,30.3,28.1,77,68,62,29.84,29.59,9,4,21,0.00
2013-1-27,47.1,39.3,31.9,35.5,31.6,27.9,90,74,59,30.00,29.84,5,1,12,0.00
2013-1-28,46.1,42.0,38.8,40.3,37.4,33.6,91,84,62,30.01,29.88,10,2,31,0.15
2013-1-29,51.7,45.0,40.3,41.0,37.9,35.4,90,76,64,30.23,30.02,14,4,31,0.00
2013-1-30,52.6,46.8,40.5,46.8,43.4,37.8,91,88,77,30.23,30.16,2,0,8,0.00
2013-1-31,59.0,50.8,46.7,49.5,46.3,43.6,96,85,63,30.20,30.11,5,1,15,0.00
2013-2-1,55.9,50.8,47.1,50.3,48.2,44.9,95,91,80,30.16,29.81,3,1,10,0.00
2013-2-2,55.0,51.0,41.8,49.7,47.5,40.5,95,88,74,29.80,29.28,12,4,31,0.39
2013-2-3,46.3,40.6,37.8,43.8,37.2,29.7,96,88,68,29.92,29.40,12,4,24,0.70
2013-2-4,48.0,41.1,37.8,31.0,26.7,21.5,72,57,37,30.14,29.93,10,4,23,0.00
2013-2-5,48.0,43.5,37.8,46.3,35.0,23.1,94,73,53,30.13,29.80,6,1,10,0.22
2013-2-6,50.7,45.2,37.3,47.3,42.9,33.8,96,92,84,29.80,29.47,6,1,17,0.17
2013-2-7,43.1,39.1,36.2,40.6,36.2,32.7,93,89,83,29.54,29.49,6,1,15,0.24
2013-2-8,42.0,38.0,35.2,34.1,31.5,26.7,90,78,64,29.73,29.52,9,4,23,0.01
2013-2-9,40.6,35.1,28.5,32.2,27.9,24.5,91,75,65,29.86,29.71,9,3,18,0.00
2013-2-10,40.8,32.7,27.6,27.8,25.8,23.3,91,77,55,29.96,29.86,6,1,14,0.09
2013-2-11,48.3,40.2,29.3,42.1,33.0,19.4,90,75,55,29.98,29.63,10,3,22,0.28
2013-2-12,45.0,41.1,38.2,42.8,39.1,36.6,94,93,88,29.66,29.58,7,2,20,1.24
2013-2-13,49.3,42.1,38.4,41.5,37.9,34.3,95,85,68,29.81,29.63,5,0,12,0.13
2013-2-14,48.2,42.2,38.0,38.3,35.7,32.8,88,78,68,29.98,29.81,16,5,24,0.00
2013-2-15,38.6,37.8,37.1,33.3,33.0,32.4,85,83,80,29.98,29.96,2,1,7,0.00
2013-2-24,41.8,38.1,37.0,34.5,33.9,33.2,88,84,75,29.94,29.79,1,0,7,0.00
2013-2-25,47.2,39.4,34.1,39.4,35.1,30.9,93,85,72,30.04,29.95,3,0,9,0.05
2013-2-26,47.8,43.2,41.1,40.8,36.8,33.9,90,78,67,30.10,29.99,12,3,22,0.04
2013-2-27,51.0,42.9,36.2,39.4,36.1,33.1,89,78,57,30.19,30.08,3,1,9,0.00
2013-2-28,53.9,45.2,37.2,40.8,36.7,32.7,85,73,54,30.23,30.15,9,2,21,0.00
2013-3-1,50.1,47.0,44.6,41.3,39.1,35.8,80,74,69,30.15,29.86,20,8,37,0.00
2013-3-2,46.9,45.7,44.3,42.3,39.5,32.3,86,79,60,29.97,29.76,18,9,44,0.50
2013-3-3,55.0,45.4,37.6,38.7,33.3,28.7,82,64,42,30.08,29.96,10,2,26,0.00
2013-3-4,55.9,45.6,36.7,46.1,38.7,28.9,88,77,66,30.20,30.06,3,0,7,0.00
2013-3-5,57.6,49.3,41.0,44.8,38.0,30.7,79,65,51,30.20,30.03,6,1,28,0.01
2013-3-6,57.6,52.3,49.1,50.0,45.0,39.4,90,77,52,30.02,29.75,10,3,24,0.13
2013-3-7,55.6,53.0,52.4,53.3,51.2,50.0,96,93,89,29.78,29.73,5,1,13,0.39
2013-3-28,54.8,52.6,49.5,52.0,50.0,47.3,94,91,88,29.92,29.87,2,0,10,0.00
2013-3-29,62.6,54.6,49.3,53.7,50.2,46.5,95,86,68,29.90,29.81,3,1,10,0.06
2013-3-30,58.8,54.1,48.4,52.5,50.8,45.8,96,89,77,29.81,29.52,7,2,20,0.75
2013-3-31,52.3,49.6,46.1,50.0,47.4,43.6,97,92,77,29.71,29.52,9,3,18,0.46
2013-4-1,50.9,48.4,46.8,49.3,46.9,45.2,95,95,93,29.75,29.69,2,0,8,0.00
2013-4-2,55.3,49.9,46.6,50.0,47.4,45.5,96,91,81,29.52,29.41,8,4,23,1.36
2013-4-3,55.2,49.2,45.5,50.1,46.8,44.4,97,92,82,29.80,29.53,3,0,9,0.07
2013-4-4,62.5,53.1,46.3,51.3,47.0,43.1,95,81,49,29.84,29.58,6,1,15,0.00
2013-4-5,60.4,54.1,49.3,52.6,48.3,41.9,94,81,53,29.79,29.43,8,2,25,0.06
2013-4-6,64.6,54.7,46.4,50.4,46.5,43.3,93,75,55,29.80,29.72,10,3,23,0.00
2013-4-7,59.8,53.2,46.9,44.1,42.2,40.7,80,67,54,29.75,29.63,14,7,30,0.00
2013-4-8,57.4,48.9,42.9,47.0,40.2,33.9,90,72,60,29.91,29.74,7,2,14,0.00
2013-4-9,61.2,53.1,48.0,50.9,48.2,45.8,92,84,65,29.97,29.84,5,1,14,0.00
2013-4-10,56.8,50.9,48.7,49.7,46.4,44.4,92,85,77,29.97,29.92,2,0,10,0.00
2013-4-12,55.2,54.6,53.3,50.1,49.6,48.6,84,83,83,30.05,30.03,0,0,3,0.00
2013-4-13,64.8,56.6,51.5,54.4,50.7,47.6,91,81,67,30.25,30.05,2,0,12,0.00
2013-4-14,69.8,59.4,48.2,53.9,44.5,26.3,91,62,27,30.32,30.25,8,2,23,0.00
2013-4-15,71.5,61.2,51.9,46.2,37.7,24.5,59,42,28,30.29,30.13,6,1,14,0.00
2013-4-16,69.6,60.8,52.9,54.8,45.2,39.4,67,57,47,30.17,30.11,5,1,12,0.00
2013-4-19,71.9,64.4,56.7,58.8,55.4,50.1,85,73,55,29.98,29.94,2,0,8,0.00
2013-4-20,61.2,55.7,52.0,55.4,52.5,48.8,94,89,80,30.01,29.97,2,0,6,0.00
2013-5-19,54.9,53.8,52.3,48.1,47.7,47.5,84,80,76,30.06,30.04,0,0,5,0.00
2013-5-20,71.0,60.0,50.9,55.4,50.5,40.7,93,73,47,30.11,30.06,3,1,12,0.00
2013-5-21,75.6,59.7,50.5,55.3,46.6,35.1,92,64,49,30.09,29.83,5,1,10,0.08
2013-5-22,70.7,60.6,55.9,62.3,56.0,53.2,92,85,65,29.81,29.54,9,1,32,0.02
2013-5-23,62.9,61.1,56.7,58.7,55.6,55.1,95,82,79,29.52,29.45,5,4,12,0.09
2013-5-24,61.7,61.7,61.7,55.1,55.1,55.1,79,79,79,29.52,29.52,5,5,5,0.00
2013-5-26,62.0,56.8,49.0,51.9,46.8,44.2,93,70,58,30.03,29.90,3,1,15,0.00
2013-5-27,51.7,50.9,46.9,48.9,48.3,44.7,94,91,88,30.03,29.98,0,0,5,0.00
2013-5-28,51.7,51.7,51.7,48.9,48.9,48.9,90,90,90,30.01,30.01,0,0,0,0.00
2013-5-29,69.3,56.9,51.7,56.1,51.4,48.9,91,82,63,30.01,29.70,3,1,12,0.02
2013-5-30,62.0,54.4,48.7,50.4,48.3,45.0,92,80,62,29.79,29.69,3,1,12,0.23
2013-5-31,45.1,45.1,45.1,43.2,43.2,43.2,93,93,93,29.75,29.75,0,0,0,0.02
2013-6-1,54.0,46.8,45.1,52.3,44.9,43.2,94,93,93,29.78,29.73,0,0,5,0.06
2013-6-2,69.1,56.9,47.6,58.1,52.5,45.7,96,86,66,29.96,29.78,1,0,9,0.01
2013-6-3,71.2,59.1,51.9,59.0,53.8,49.1,93,83,60,29.95,29.88,2,0,9,0.69
2013-6-4,64.6,58.4,53.4,59.0,54.6,51.1,93,88,75,29.98,29.91,2,0,8,0.03
2013-6-5,70.8,61.2,52.6,61.1,55.7,50.0,93,83,66,30.05,29.97,5,1,7,0.00
2013-6-6,78.8,64.9,53.8,62.0,56.0,50.3,94,75,37,30.07,29.99,7,1,16,0.00
2013-6-7,78.4,68.1,60.8,58.1,54.1,51.2,77,62,40,30.01,29.94,7,2,17,0.00
2013-6-8,77.9,67.5,57.6,63.8,57.9,51.0,86,72,52,29.99,29.92,2,0,8,0.00
2013-6-9,79.7,67.1,60.0,64.7,57.0,44.8,87,71,51,29.97,29.86,3,1,10,0.00
2013-6-10,72.8,64.2,56.6,61.3,54.0,44.2,89,70,53,29.91,29.84,2,0,10,0.00
2013-6-11,71.2,61.3,55.4,59.0,56.2,52.2,92,84,62,29.95,29.86,2,0,7,0.12
2013-6-12,77.0,66.3,54.7,54.5,50.8,42.7,92,61,36,30.01,29.94,6,2,18,0.01
2013-6-13,77.5,70.1,63.3,52.6,49.4,44.7,59,48,40,30.01,29.96,12,4,25,0.00
2013-6-14,81.7,70.8,61.0,62.4,55.9,50.6,73,60,42,30.03,29.97,3,1,9,0.00
2013-6-15,78.4,69.7,59.2,66.9,60.8,54.2,89,74,64,30.05,30.01,2,0,7,0.00
2013-6-16,84.4,71.8,60.3,68.0,61.8,57.4,91,72,55,30.07,30.02,2,0,8,0.00
2013-6-17,88.3,76.0,64.9,71.9,66.5,57.8,93,74,57,30.04,29.98,3,0,8,0.00
2013-6-18,91.3,79.4,69.8,72.0,66.1,61.6,82,65,44,30.00,29.97,3,0,8,0.00
2013-6-19,91.4,80.5,71.8,72.0,65.5,56.2,78,61,46,30.00,29.96,2,0,8,0.00
2013-6-20,91.9,80.2,71.7,70.3,61.3,54.3,70,54,34,30.00,29.95,2,1,10,0.00
2013-6-21,89.9,77.8,68.5,68.1,58.1,50.1,65,52,34,30.00,29.97,3,1,10,0.00
2013-6-22,86.2,75.5,66.9,66.9,57.4,49.2,67,54,44,30.01,29.95,2,1,10,0.00
2013-6-23,83.4,70.7,62.7,63.9,56.0,41.0,90,61,39,30.00,29.93,5,1,13,0.02
2013-6-24,74.9,65.8,61.0,62.6,58.5,54.6,91,78,55,29.94,29.89,5,1,12,0.01
2013-6-25,76.2,67.4,60.4,60.0,58.0,55.3,92,73,53,30.03,29.92,3,0,8,0.00
2013-6-26,80.0,64.8,54.0,58.8,52.6,45.5,83,66,38,30.06,30.00,9,2,17,0.05
2013-6-27,74.5,65.5,57.0,57.8,53.7,49.5,80,66,50,30.07,30.03,9,2,21,0.00
2013-6-28,76.2,66.3,56.5,60.4,56.7,52.2,92,73,50,30.06,29.98,3,1,12,0.00
2013-6-29,73.0,64.2,58.5,58.2,53.9,50.0,83,70,47,30.01,29.93,6,1,14,0.01
2013-6-30,76.3,65.8,52.8,57.2,51.4,45.2,79,61,42,30.08,29.99,7,1,12,0.00
2013-7-1,80.2,69.6,58.6,59.5,54.1,50.6,76,60,39,30.10,30.05,3,1,10,0.00
2013-7-2,83.8,72.1,62.9,60.9,56.3,50.6,70,58,44,30.08,30.02,3,1,9,0.00
2013-7-3,83.7,72.9,64.0,58.7,54.5,44.4,71,54,38,30.04,29.95,2,1,12,0.00
2013-7-4,77.8,67.2,62.6,64.5,57.6,45.3,88,72,49,30.03,29.95,3,0,9,0.01
2013-7-5,84.7,72.3,59.9,64.1,55.7,44.6,86,59,34,30.08,30.01,7,2,20,0.00
2013-7-6,85.6,76.1,65.1,61.4,57.3,49.5,69,53,42,30.08,30.00,7,2,16,0.00
2013-7-7,84.6,72.9,65.9,66.1,60.9,54.6,89,67,46,30.07,30.00,6,1,16,0.37
2013-7-8,82.4,71.5,64.0,65.8,61.5,57.9,85,72,54,30.11,30.04,5,1,16,0.11
2013-7-9,83.6,71.1,62.2,66.1,61.5,57.2,91,73,50,30.07,29.97,5,1,15,0.09
2013-7-10,82.8,71.0,60.5,67.9,62.2,57.5,91,75,50,29.97,29.88,2,0,9,0.01
2013-7-11,80.6,71.0,63.8,68.8,64.1,58.6,89,79,64,29.93,29.86,5,0,10,0.00
2013-7-12,82.1,72.8,65.3,69.3,65.7,61.4,91,79,63,30.03,29.93,3,1,13,0.02
2013-7-13,84.8,73.8,64.4,69.4,64.8,59.5,94,75,51,30.04,29.99,2,0,10,0.00
2013-7-14,84.5,71.7,62.9,69.4,64.5,59.9,91,79,52,30.02,29.97,5,0,9,0.17
2013-7-15,85.8,71.5,59.7,65.8,60.8,56.9,92,71,46,30.04,30.00,3,1,14,0.01
2013-7-16,85.4,75.9,65.3,60.6,55.5,46.9,74,50,39,30.08,30.04,6,2,14,0.00
2013-7-17,84.8,76.2,68.8,59.5,52.6,45.1,51,44,37,30.08,30.02,8,3,17,0.00
2013-7-18,85.8,75.8,63.0,62.4,59.1,54.8,80,57,40,30.06,30.03,3,1,9,0.00
2013-7-19,83.6,72.8,66.2,66.7,60.6,55.6,78,66,52,30.05,29.99,5,1,13,0.00
2013-7-20,85.1,73.3,63.8,65.2,61.3,57.0,83,68,44,29.99,29.93,3,0,9,0.00
2013-7-21,81.3,69.6,63.0,68.2,61.5,58.4,88,76,55,30.01,29.95,6,0,20,0.09
2013-7-22,85.5,75.5,63.4,66.9,60.9,56.6,81,62,46,29.99,29.92,5,1,15,0.00
2013-7-23,88.2,76.9,65.9,67.8,61.3,56.8,80,60,38,29.96,29.90,5,1,9,0.00
2013-7-24,86.8,76.0,66.3,70.8,66.1,58.2,87,72,55,30.02,29.95,2,0,10,0.00
2013-7-25,87.4,76.3,67.3,70.8,65.7,56.8,92,72,48,30.04,30.00,3,0,7,0.00
2013-7-26,90.4,77.2,66.7,73.5,67.0,59.8,87,72,52,30.02,29.95,2,0,9,0.00
2013-7-27,93.4,80.9,69.5,73.0,66.5,58.5,81,63,46,29.96,29.92,3,0,9,0.00
2013-7-28,93.3,84.8,77.4,71.9,67.5,60.4,64,56,50,30.04,30.00,1,0,8,0.00
2013-7-29,94.1,81.6,73.1,70.5,65.3,58.8,79,59,37,30.05,30.00,2,0,9,0.00
2013-7-30,90.7,78.8,70.4,71.0,66.2,60.1,92,67,38,30.00,29.91,3,1,10,0.00
2013-7-31,86.2,77.5,70.8,63.4,56.1,48.3,72,49,36,29.94,29.90,12,5,26,0.00
2013-8-1,79.7,74.8,72.0,60.0,54.5,50.6,59,49,40,29.97,29.92,7,4,20,0.00
2013-8-4,97.5,90.2,80.5,67.6,61.7,54.6,53,39,28,30.04,29.99,3,1,9,0.00
2013-8-5,97.3,83.7,72.8,70.3,60.4,50.0,58,46,33,30.01,29.93,2,0,9,0.00
2013-8-6,94.9,83.9,75.3,72.5,62.8,51.8,66,50,39,29.99,29.93,3,1,8,0.00
2013-8-7,96.0,83.3,74.1,72.8,63.6,51.6,64,52,36,29.95,29.91,3,0,9,0.00
2013-8-8,96.8,84.4,74.8,71.6,63.7,54.2,63,50,38,29.95,29.90,3,0,8,0.00
2013-8-9,93.0,80.7,68.0,72.1,62.1,56.3,87,55,35,29.92,29.80,8,2,22,0.33
2013-8-10,79.6,75.9,72.8,64.8,60.3,56.7,65,59,53,29.90,29.83,6,3,18,0.00
2013-8-11,86.3,75.2,66.4,66.1,60.6,56.0,78,62,47,29.95,29.88,6,2,14,0.00
2013-8-12,87.5,76.6,67.6,70.1,64.1,60.2,82,67,50,29.99,29.94,3,0,10,0.00
2013-8-13,88.0,75.3,66.5,70.0,64.5,59.8,87,70,47,29.99,29.94,3,1,8,0.00
2013-8-14,86.8,74.3,66.7,70.2,64.1,56.2,89,71,51,29.96,29.89,7,1,16,0.00
2013-8-15,84.4,76.3,70.2,64.3,61.6,57.0,73,61,50,30.01,29.93,10,5,31,0.00
2013-8-16,89.2,76.9,68.0,63.8,59.7,56.0,74,57,34,30.03,29.97,8,2,15,0.00
2013-8-17,89.8,77.4,67.4,66.6,61.8,56.6,78,60,41,30.02,29.97,3,1,9,0.00
2013-8-18,90.1,78.7,68.9,65.7,58.9,52.8,62,52,34,30.05,30.00,2,1,10,0.00
2013-8-19,85.9,74.2,68.2,64.5,58.9,49.3,73,59,45,29.98,29.95,1,0,5,0.00
2013-8-20,83.5,71.9,65.5,67.7,61.0,47.9,90,70,46,29.98,29.89,12,2,25,0.00
2013-8-21,80.4,72.6,63.7,64.1,59.3,54.9,77,64,52,29.99,29.91,10,6,25,0.00
2013-8-22,88.3,75.2,67.8,63.3,59.5,54.8,73,59,39,29.98,29.92,9,2,26,0.00
2013-8-23,86.6,75.0,67.7,66.9,62.2,56.1,78,65,45,29.99,29.94,3,1,10,0.00
2013-8-24,85.3,73.6,66.5,67.2,61.8,55.2,91,69,43,29.99,29.91,2,1,12,0.00
2013-8-25,75.6,68.1,62.2,67.1,62.9,59.2,94,84,63,29.93,29.84,3,0,15,0.65
2013-8-26,83.4,73.5,66.5,67.3,63.7,60.6,94,73,50,29.90,29.83,3,0,10,0.00
2013-8-27,80.5,70.5,64.7,68.2,64.5,61.1,93,82,64,29.88,29.83,3,0,8,0.23
2013-8-30,77.4,72.0,65.4,60.2,57.3,53.3,70,60,53,30.06,29.98,9,6,24,0.35
2013-8-31,80.2,71.2,65.2,57.3,52.4,45.5,63,52,42,30.06,30.00,9,5,21,0.00
2013-9-1,82.3,72.3,65.3,63.5,52.1,43.8,82,51,31,30.07,30.01,9,2,23,0.00
2013-9-2,83.7,70.9,58.7,60.0,54.5,51.3,80,58,36,30.16,30.05,9,2,15,0.00
2013-9-3,82.3,72.4,61.1,58.1,52.0,47.0,72,50,33,30.19,30.14,9,2,22,0.00
2013-9-4,84.0,74.9,65.4,55.2,50.8,46.8,55,43,33,30.18,30.10,9,3,18,0.00
2013-9-5,85.5,73.5,65.4,61.7,53.9,47.3,68,51,34,30.10,29.95,3,1,10,0.00
2013-9-6,87.1,72.8,62.6,63.9,56.6,52.8,75,58,35,29.96,29.89,3,0,9,0.00
2013-9-7,86.6,73.3,64.5,65.9,60.5,56.0,78,65,45,30.10,29.96,2,0,8,0.00
2013-9-8,85.1,73.1,64.4,69.3,62.6,52.6,90,71,49,30.16,30.10,2,0,8,0.00
2013-9-9,79.8,71.0,65.1,67.7,63.5,52.7,94,78,57,30.14,30.07,3,0,13,0.14
2013-9-10,74.9,67.6,61.2,65.7,63.3,58.3,96,87,72,30.11,29.96,5,0,12,1.11
2013-9-11,76.5,66.7,59.6,66.6,62.3,58.2,96,87,67,30.04,29.97,3,0,10,0.38
2013-9-12,71.1,63.7,57.3,64.3,59.6,53.1,96,87,61,30.01,29.94,3,0,12,0.68
2013-9-13,75.8,64.2,57.3,59.9,55.8,52.8,89,76,45,30.12,29.98,3,1,8,0.01
2013-9-14,75.5,65.7,58.2,62.5,58.2,52.6,91,78,59,30.13,30.07,2,1,12,0.00
2013-9-15,70.9,63.9,58.2,61.0,58.7,55.7,93,84,70,30.08,29.85,2,0,8,0.01
2013-9-16,74.7,65.6,60.5,63.2,60.0,58.3,96,83,61,29.85,29.75,5,0,14,0.54
2013-9-17,67.0,62.9,59.1,63.9,58.8,55.7,95,87,73,29.75,29.67,5,1,15,0.09
2013-9-18,72.9,63.3,55.8,60.9,57.2,52.3,92,81,62,29.79,29.73,3,0,9,0.00
2013-9-19,74.9,65.7,60.1,64.8,60.9,54.9,95,85,65,29.85,29.73,2,0,9,0.10
2013-9-20,74.9,65.3,58.1,62.1,56.9,50.0,85,75,60,30.03,29.86,5,1,12,0.00
2013-9-21,78.4,67.2,57.3,61.7,55.3,52.1,88,68,41,30.14,30.03,10,2,21,0.00
2013-9-22,70.7,65.5,60.0,52.9,47.9,41.2,70,53,44,30.16,30.12,14,8,30,0.00
2013-9-23,74.5,64.4,58.5,53.3,49.1,41.1,72,58,44,30.15,30.06,9,3,23,0.00
2013-9-24,76.3,64.1,55.9,59.4,54.4,48.8,92,72,50,30.08,30.04,3,0,8,0.00
2013-9-25,73.7,64.7,57.6,63.2,59.2,55.0,93,83,67,30.06,30.01,2,0,9,0.00
2013-9-26,74.7,65.7,57.3,64.6,60.4,55.6,94,84,64,30.04,29.97,3,0,8,0.00
2013-9-27,75.2,66.9,60.4,67.2,63.0,58.7,95,88,73,30.01,29.96,2,0,7,0.00
2013-9-28,76.6,67.2,60.3,65.8,62.1,57.6,96,84,67,29.98,29.92,2,0,6,0.00
2013-9-29,73.9,67.1,61.6,66.7,61.3,55.8,93,82,66,29.94,29.75,2,0,7,0.09
2013-9-30,70.5,65.9,60.0,65.5,63.0,57.7,96,90,79,29.76,29.59,5,1,24,0.99
2013-10-1,74.3,65.0,58.5,62.1,58.8,55.3,95,81,60,29.80,29.64,5,1,9,0.00
2013-10-2,66.7,61.8,57.8,56.3,53.3,49.5,85,74,64,30.06,29.80,16,6,31,0.00
2013-10-3,64.0,58.0,53.6,49.9,46.9,44.7,77,67,54,30.26,30.07,14,8,35,0.00
2013-10-4,66.0,57.2,47.5,52.9,48.3,42.9,87,72,62,30.31,30.24,6,1,12,0.00
2013-10-5,60.6,58.2,55.6,59.5,55.7,51.0,96,92,79,30.26,30.09,2,0,15,1.26
2013-10-6,72.1,63.8,58.2,64.3,60.9,57.4,97,90,75,30.11,30.01,9,1,24,0.43
2013-10-7,73.2,63.9,57.1,64.7,60.0,55.2,96,87,71,30.12,30.03,3,0,7,0.26
2013-10-8,70.0,61.3,56.8,62.1,56.7,53.2,93,85,69,30.14,30.09,7,0,14,0.01
2013-10-9,66.5,60.2,56.4,60.5,57.2,54.3,95,90,79,30.12,30.03,1,0,10,0.55
2013-10-10,69.6,61.4,55.6,61.2,58.1,54.5,97,89,72,30.05,29.86,6,0,12,0.06
2013-10-11,68.0,63.1,60.3,63.4,60.7,58.3,97,92,77,30.05,29.86,5,1,14,3.29
2013-10-12,66.2,62.4,58.5,63.5,60.6,57.4,97,94,88,30.15,30.04,3,0,12,0.46
2013-10-13,76.0,66.3,60.5,67.2,59.8,51.7,95,80,56,30.15,30.10,2,0,9,0.00
2013-10-14,76.6,65.0,57.0,63.0,55.2,49.1,79,71,47,30.15,30.09,5,0,12,0.00
2013-10-15,70.2,64.1,60.5,61.9,56.4,52.7,90,76,69,30.11,29.98,2,0,6,0.00
2013-10-16,68.4,61.6,58.6,64.7,58.3,43.8,96,89,56,29.96,29.70,7,1,16,1.00
2013-10-17,70.2,59.8,49.0,51.3,44.4,35.1,72,58,39,30.03,29.86,8,1,17,0.00
2013-10-18,71.5,59.9,51.9,53.1,44.5,35.7,74,57,45,30.11,30.02,2,0,7,0.00
2013-10-19,70.9,61.0,53.9,56.4,47.3,37.9,85,61,49,30.27,30.11,3,0,9,0.00
2013-10-20,72.5,62.6,55.0,62.3,58.0,52.9,95,85,68,30.31,30.25,2,0,6,0.01
2013-10-21,72.4,64.6,59.5,62.8,58.6,55.0,90,81,69,30.29,30.22,2,0,7,0.00
2013-10-22,74.1,64.6,58.8,63.4,59.3,55.7,91,83,68,30.23,30.15,1,0,4,0.00
2013-10-23,72.9,64.0,58.4,64.6,59.0,53.3,92,84,73,30.20,30.13,2,0,6,0.00
2013-10-24,69.9,62.3,55.4,62.7,57.2,51.3,92,84,70,30.19,30.15,1,0,5,0.00
2013-10-25,74.0,64.3,57.1,63.0,57.6,53.6,90,80,60,30.19,30.15,2,0,8,0.00
2013-10-26,73.0,64.1,58.9,63.1,57.8,53.5,90,80,69,30.24,30.18,2,0,5,0.00
2013-10-27,67.6,61.7,56.9,61.7,59.0,54.6,96,91,79,30.25,30.20,1,0,5,0.00
2013-10-28,70.6,62.6,57.2,62.6,59.8,55.8,96,91,75,30.21,30.12,2,0,9,0.01
2013-10-29,71.5,61.5,55.5,63.9,57.7,49.7,95,88,77,30.11,30.00,2,0,5,0.00
2013-10-30,68.7,60.1,54.2,62.2,56.2,49.5,95,87,76,30.06,29.97,3,0,8,0.00
2013-10-31,71.1,63.8,60.7,58.4,55.4,51.0,87,75,56,30.17,30.07,7,3,18,0.00
2013-11-1,70.5,61.8,56.4,59.1,54.8,52.2,89,78,62,30.18,30.13,6,1,16,0.00
2013-11-2,65.8,60.6,56.5,60.2,56.6,52.3,91,87,78,30.15,30.09,2,0,7,0.10
2013-11-3,64.8,61.5,59.9,62.4,59.6,57.8,95,94,89,30.10,29.99,3,0,9,0.07
2013-11-4,69.2,62.4,60.0,60.4,58.2,56.2,95,86,72,30.00,29.61,7,3,17,0.03
2013-11-5,63.1,58.4,53.4,58.5,55.5,51.4,94,90,78,29.59,29.40,8,2,24,0.85
2013-11-6,65.5,55.6,49.3,58.4,50.4,45.5,94,83,65,29.92,29.52,2,0,7,0.01
2013-11-7,68.3,59.5,51.4,60.2,52.5,45.9,95,78,57,30.13,29.92,2,0,9,0.00
2013-11-8,64.6,60.5,57.0,62.8,58.8,55.0,97,94,86,30.13,30.09,1,0,6,0.01
2013-11-9,68.0,60.3,54.7,61.3,57.6,52.4,95,91,79,30.10,29.98,3,0,9,0.01
2013-11-10,61.4,56.2,52.1,56.4,53.4,50.3,96,91,74,30.00,29.60,7,1,16,0.96
2013-11-11,54.0,51.3,46.2,51.2,47.7,43.4,96,88,82,29.70,29.38,10,4,21,0.65
2013-11-12,57.7,55.1,50.9,53.1,50.7,45.6,90,85,80,29.94,29.70,14,7,35,0.20
2013-11-13,58.8,57.3,55.5,53.7,52.2,50.9,88,83,78,29.95,29.85,13,6,28,0.14
2013-11-14,57.8,57.0,56.6,52.8,52.5,52.0,87,85,82,29.95,29.94,6,4,14,0.05
2013-11-22,48.4,47.7,47.4,46.2,45.6,45.2,93,92,92,29.51,29.45,6,3,16,0.61
2013-11-23,47.4,44.8,41.9,45.6,42.5,39.9,95,91,78,29.63,29.42,9,1,14,0.76
2013-11-24,48.6,44.8,41.3,45.4,41.1,39.0,94,87,77,29.71,29.59,6,1,18,0.42
2013-11-25,50.4,45.0,33.4,43.5,38.3,31.2,92,78,65,29.85,29.71,12,4,28,0.15
2013-11-27,42.0,38.9,36.4,33.1,32.1,30.0,87,77,66,30.26,30.10,9,6,24,0.21
2013-11-28,42.3,38.8,36.1,38.4,35.8,32.5,93,89,79,30.33,30.26,10,2,25,0.09
2013-11-29,48.2,44.4,40.4,42.7,39.6,36.6,88,83,77,30.27,30.09,10,5,24,0.01
2013-11-30,50.0,45.4,39.6,46.0,41.6,36.6,90,86,79,30.08,29.79,18,4,39,0.02
2013-12-1,54.0,50.9,47.4,49.5,45.6,43.3,87,82,76,29.80,29.61,21,13,47,1.24
2013-12-2,56.9,53.6,49.3,52.0,50.5,46.5,93,89,81,30.08,29.72,10,5,23,1.77
2013-12-3,52.9,48.9,45.0,47.4,39.8,36.2,92,71,60,30.22,30.06,20,12,45,0.34
2013-12-4,46.5,44.4,41.6,39.1,36.2,32.1,81,73,61,30.24,30.21,10,3,27,0.00
2013-12-5,48.4,45.1,42.4,43.5,41.4,38.4,92,87,72,30.25,30.14,1,0,4,0.00
2013-12-6,49.3,45.8,41.0,42.9,41.3,37.1,90,84,75,30.14,29.96,3,0,7,0.00
2013-12-7,53.8,45.9,39.9,42.6,38.3,35.4,86,75,62,30.34,30.01,6,1,15,0.00
2013-12-8,52.4,47.6,42.9,46.2,42.9,38.6,89,84,74,30.44,30.33,2,0,8,0.00
2013-12-9,53.1,49.1,45.6,50.2,45.9,42.3,93,88,84,30.44,30.39,1,0,6,0.09
2013-12-10,55.8,48.9,42.5,45.1,41.9,38.6,88,77,64,30.51,30.40,10,2,22,0.00
2013-12-11,55.0,49.1,43.2,43.8,41.1,34.8,82,74,63,30.53,30.47,16,4,30,0.01
2013-12-12,52.2,45.1,39.3,45.6,39.3,33.5,87,80,70,30.51,30.36,1,0,6,0.00
2013-12-13,50.9,44.8,40.7,44.8,41.2,36.8,93,87,78,30.36,30.26,1,0,5,0.00
2013-12-14,51.3,44.6,40.3,42.9,40.0,37.3,92,84,63,30.43,30.30,1,0,7,0.01
2013-12-15,50.6,46.9,42.4,46.7,41.2,36.2,93,81,66,30.47,30.40,6,1,22,0.01
2013-12-16,55.0,50.0,46.4,38.5,33.0,26.3,71,53,37,30.52,30.46,8,3,25,0.00
2013-12-17,54.7,48.1,41.3,40.1,33.3,25.7,79,58,41,30.49,30.41,7,2,20,0.00
2013-12-18,51.6,44.1,39.6,39.1,31.7,26.7,74,62,49,30.40,30.29,2,0,8,0.00
2013-12-19,50.1,44.6,38.4,44.5,39.7,30.1,89,83,68,30.30,30.22,1,0,5,0.00
2013-12-20,54.7,47.0,42.5,45.8,42.0,38.9,89,83,71,30.50,30.23,1,0,5,0.00
2013-12-21,54.3,47.8,43.2,43.8,40.8,38.2,88,77,64,30.58,30.49,10,2,20,0.00
2013-12-22,51.9,44.8,41.0,43.4,38.2,34.3,85,78,66,30.56,30.41,1,0,8,0.00
2013-12-23,51.0,44.5,39.0,40.3,36.7,31.3,85,75,54,30.40,30.28,6,1,15,0.00
2013-12-24,51.9,47.2,43.0,43.0,40.3,38.6,92,77,66,30.21,30.15,1,0,7,0.00
2013-12-25,53.3,48.9,44.5,48.0,45.0,42.1,94,87,78,30.15,29.80,5,0,15,0.00
2013-12-26,53.6,48.4,43.2,49.1,45.3,41.3,94,89,77,29.78,29.44,10,3,23,2.28
2013-12-27,49.6,44.3,40.4,44.2,41.6,38.8,95,90,77,29.92,29.51,2,0,5,0.09
2013-12-28,54.7,46.0,40.2,46.6,41.3,37.2,93,84,68,30.09,29.93,3,0,6,0.00
2013-12-29,53.0,49.3,46.4,50.5,47.2,44.5,94,92,85,30.14,30.07,1,0,5,0.05
2013-12-30,52.3,50.1,47.9,47.7,46.3,44.4,95,87,79,30.14,30.07,8,2,23,0.00
2013-12-31,51.7,48.7,47.3,44.8,43.2,42.0,86,81,76,30.08,30.02,13,8,30,0.00
2014-1-1,51.6,48.4,45.9,47.5,44.7,42.5,91,87,85,30.13,30.04,6,1,17,0.00
2014-1-2,52.0,47.9,42.6,47.2,44.8,40.2,94,89,78,30.13,30.08,1,0,6,0.05